Total_Precipitation_Accumulation
0.11 0.11 0.10 0.10 0.12 0.19 0.29 0.40 0.36 0.42 0.44 0.31 0.21 0.16 0.16 0.28 0.42 0.43 0.26 0.22 0.13 0.13 0.21 0.30 0.29 0.30 0.29 0.25 0.22 0.22 0.19 0.20 0.18 0.14 0.12 0.12 0.13 0.14 0.16 0.21 0.24 0.23 0.21
0.24 0.30 0.29 0.29 0.28 0.35 0.46 0.57 0.55 0.63 0.54 0.46 0.26 0.24 0.27 0.33 0.45 0.42 0.26 0.28 0.15 0.08 0.13 0.22 0.28 0.29 0.27 0.24 0.20 0.18 0.14 0.15 0.14 0.10 0.08 0.08 0.09 0.10 0.13 0.18 0.21 0.21 0.16
0.54 0.59 0.50 0.46 0.51 0.65 0.70 0.68 0.63 0.64 0.47 0.43 0.34 0.39 0.40 0.36 0.32 0.26 0.21 0.19 0.17 0.11 0.09 0.11 0.19 0.24 0.25 0.28 0.24 0.22 0.16 0.11 0.07 0.06 0.05 0.04 0.03 0.03 0.05 0.09 0.14 0.16 0.12
0.69 0.80 0.63 0.51 0.71 0.86 0.84 0.78 0.67 0.63 0.57 0.53 0.45 0.43 0.44 0.40 0.29 0.24 0.20 0.16 0.15 0.12 0.11 0.11 0.13 0.17 0.26 0.33 0.33 0.32 0.25 0.15 0.08 0.05 0.04 0.03 0.02 0.02 0.01 0.03 0.07 0.10 0.08
0.79 0.94 0.79 0.76 0.92 0.91 0.83 0.79 0.82 0.95 0.85 0.78 0.70 0.56 0.45 0.37 0.29 0.24 0.18 0.13 0.15 0.18 0.20 0.18 0.12 0.14 0.24 0.39 0.42 0.42 0.38 0.26 0.15 0.10 0.09 0.07 0.04 0.03 0.01 0.01 0.03 0.05 0.05
0.65 0.83 0.73 0.75 0.93 0.92 0.81 0.87 0.92 0.97 0.83 0.85 0.82 0.54 0.37 0.28 0.24 0.18 0.14 0.12 0.10 0.07 0.12 0.20 0.23 0.18 0.20 0.31 0.40 0.47 0.46 0.37 0.25 0.18 0.16 0.13 0.10 0.06 0.03 0.01 0.01 0.02 0.03
0.56 0.72 0.65 0.73 0.83 0.77 0.71 0.75 0.79 0.81 0.67 0.90 0.96 0.53 0.25 0.18 0.13 0.08 0.09 0.09 0.06 0.04 0.06 0.12 0.16 0.19 0.19 0.16 0.26 0.35 0.48 0.48 0.37 0.25 0.20 0.17 0.15 0.11 0.07 0.04 0.02 0.02 0.03
0.65 0.66 0.67 0.68 0.69 0.68 0.60 0.57 0.65 0.65 0.53 0.74 0.82 0.68 0.36 0.18 0.08 0.04 0.06 0.06 0.06 0.07 0.06 0.07 0.10 0.18 0.16 0.16 0.22 0.18 0.26 0.40 0.40 0.35 0.29 0.21 0.18 0.15 0.11 0.09 0.05 0.04 0.03
0.87 0.85 0.80 0.73 0.66 0.67 0.62 0.56 0.59 0.60 0.51 0.52 0.67 0.80 0.57 0.30 0.20 0.10 0.12 0.16 0.20 0.21 0.16 0.13 0.14 0.20 0.21 0.24 0.26 0.30 0.18 0.25 0.37 0.52 0.49 0.35 0.22 0.14 0.12 0.13 0.13 0.09 0.05
1.06 0.96 0.85 0.71 0.60 0.57 0.57 0.52 0.53 0.57 0.58 0.49 0.49 0.59 0.61 0.56 0.50 0.24 0.12 0.16 0.30 0.32 0.27 0.20 0.17 0.18 0.21 0.26 0.31 0.52 0.47 0.34 0.37 0.53 0.58 0.50 0.33 0.19 0.14 0.17 0.28 0.28 0.15
0.76 0.70 0.64 0.59 0.51 0.46 0.45 0.49 0.55 0.58 0.58 0.52 0.49 0.49 0.54 0.58 0.58 0.49 0.28 0.26 0.32 0.30 0.24 0.20 0.20 0.24 0.29 0.36 0.49 0.60 0.75 0.59 0.48 0.44 0.44 0.41 0.39 0.32 0.26 0.31 0.53 0.65 0.52
0.39 0.37 0.37 0.39 0.39 0.39 0.38 0.40 0.46 0.51 0.52 0.54 0.55 0.57 0.60 0.61 0.62 0.65 0.56 0.50 0.46 0.39 0.35 0.36 0.36 0.40 0.45 0.51 0.61 0.68 0.60 0.63 0.67 0.66 0.60 0.47 0.39 0.37 0.39 0.47 0.65 0.81 0.88
0.24 0.25 0.27 0.30 0.32 0.34 0.39 0.46 0.48 0.49 0.53 0.56 0.57 0.62 0.69 0.72 0.74 0.76 0.72 0.65 0.57 0.55 0.58 0.59 0.57 0.58 0.49 0.52 0.63 0.57 0.43 0.44 0.47 0.49 0.47 0.47 0.44 0.44 0.46 0.47 0.59 0.75 0.92
0.29 0.31 0.35 0.37 0.37 0.37 0.36 0.43 0.47 0.50 0.55 0.59 0.57 0.64 0.69 0.70 0.72 0.78 0.78 0.73 0.64 0.67 0.76 0.82 0.69 0.59 0.50 0.48 0.51 0.46 0.44 0.39 0.25 0.19 0.18 0.20 0.24 0.30 0.38 0.49 0.56 0.59 0.64
0.33 0.36 0.42 0.48 0.51 0.51 0.51 0.53 0.53 0.58 0.67 0.72 0.70 0.70 0.70 0.68 0.67 0.72 0.75 0.73 0.66 0.64 0.69 0.74 0.60 0.52 0.42 0.41 0.48 0.53 0.65 0.48 0.23 0.12 0.10 0.10 0.12 0.15 0.19 0.27 0.35 0.45 0.54
0.38 0.43 0.47 0.49 0.53 0.54 0.56 0.59 0.65 0.74 0.84 0.82 0.80 0.81 0.78 0.73 0.69 0.66 0.63 0.65 0.64 0.64 0.63 0.64 0.53 0.45 0.40 0.36 0.40 0.40 0.45 0.31 0.16 0.12 0.10 0.09 0.08 0.09 0.11 0.14 0.18 0.24 0.31
0.41 0.47 0.44 0.38 0.36 0.40 0.49 0.59 0.69 0.78 0.86 0.85 0.85 0.77 0.66 0.59 0.59 0.50 0.49 0.53 0.57 0.58 0.56 0.59 0.54 0.49 0.47 0.44 0.41 0.32 0.27 0.19 0.18 0.14 0.11 0.11 0.11 0.11 0.09 0.09 0.11 0.14 0.19
0.41 0.45 0.40 0.35 0.36 0.43 0.52 0.64 0.78 0.97 1.07 1.02 0.90 0.75 0.61 0.55 0.52 0.48 0.49 0.47 0.46 0.49 0.51 0.56 0.56 0.48 0.42 0.38 0.36 0.34 0.28 0.25 0.28 0.22 0.15 0.12 0.12 0.14 0.11 0.08 0.10 0.11 0.16
0.41 0.40 0.40 0.44 0.55 0.64 0.73 0.84 0.88 1.01 1.04 0.94 0.84 0.72 0.59 0.52 0.51 0.51 0.53 0.51 0.40 0.37 0.46 0.50 0.51 0.45 0.38 0.30 0.24 0.27 0.29 0.39 0.44 0.32 0.21 0.15 0.13 0.14 0.14 0.10 0.13 0.20 0.31
0.24 0.32 0.44 0.61 0.72 0.79 0.82 0.87 0.85 0.82 0.81 0.74 0.66 0.56 0.53 0.56 0.55 0.48 0.44 0.41 0.36 0.32 0.33 0.34 0.34 0.32 0.28 0.23 0.19 0.21 0.27 0.39 0.49 0.40 0.32 0.25 0.18 0.14 0.15 0.13 0.11 0.20 0.32
0.21 0.29 0.41 0.50 0.49 0.52 0.64 0.69 0.67 0.65 0.59 0.55 0.49 0.36 0.35 0.45 0.49 0.43 0.35 0.30 0.26 0.25 0.21 0.17 0.15 0.16 0.15 0.13 0.11 0.14 0.21 0.37 0.48 0.51 0.52 0.46 0.37 0.33 0.32 0.30 0.22 0.20 0.22
0.14 0.19 0.24 0.23 0.19 0.18 0.22 0.27 0.31 0.33 0.32 0.32 0.30 0.27 0.29 0.33 0.33 0.29 0.27 0.23 0.17 0.15 0.14 0.12 0.08 0.07 0.07 0.06 0.08 0.14 0.21 0.37 0.54 0.64 0.73 0.78 0.67 0.64 0.66 0.64 0.47 0.26 0.16
0.10 0.12 0.10 0.08 0.08 0.07 0.06 0.06 0.09 0.14 0.12 0.11 0.12 0.14 0.18 0.20 0.18 0.14 0.12 0.11 0.10 0.07 0.06 0.07 0.05 0.04 0.03 0.03 0.05 0.12 0.24 0.50 0.76 0.88 0.93 1.07 0.94 0.82 0.77 0.70 0.57 0.38 0.24
0.13 0.17 0.13 0.08 0.06 0.04 0.02 0.03 0.03 0.04 0.04 0.03 0.04 0.04 0.07 0.12 0.11 0.06 0.04 0.04 0.03 0.02 0.02 0.02 0.02 0.02 0.01 0.02 0.03 0.06 0.12 0.28 0.51 0.62 0.74 1.00 1.07 1.05 0.94 0.70 0.57 0.48 0.37
0.18 0.19 0.17 0.13 0.09 0.05 0.01 0.01 0.01 0.03 0.03 0.02 0.02 0.01 0.02 0.04 0.05 0.04 0.02 0.01 0.01 0.01 0.00 0.00 0.00 0.00 0.00 0.00 0.01 0.03 0.05 0.08 0.15 0.18 0.25 0.55 0.80 0.93 1.07 0.99 0.72 0.61 0.49
0.26 0.23 0.22 0.19 0.14 0.09 0.02 0.00 0.00 0.02 0.03 0.02 0.01 0.01 0.01 0.01 0.01 0.01 0.02 0.01 0.01 0.00 0.00 0.00 0.00 0.00 0.00 0.00 0.00 0.02 0.07 0.09 0.11 0.13 0.10 0.17 0.30 0.48 0.67 0.76 0.71 0.69 0.69